Location: Ammerl�gen
(47.2167°N, 9.6000°E)
Time: 16:11:02
(UTC+00:00)

Cosmos 2297 Rocket - Pass Details

Date: 21 April 2021
Orbit: 838 x 844 km, 71.0° (Epoch: 06 May)

Event Time Altitude Azimuth Distance (km) Brightness Sun altitude
Rises 19:12:32 0° 178° (S) 3,379 5.0 -9.1°
Reaches altitude 10° 19:15:09 10° 169° (S) 2,450 4.2 -9.5°
Maximum altitude 19:20:10 35° 106° (ESE) 1,343 2.8 -10.2°
Drops below altitude 10° 19:25:14 10° 42° (NE) 2,469 4.5 -11.0°
Sets 19:27:52 0° 34° (NE) 3,409 5.3 -11.3°
